Location: Ferintosh
(52.7647°N, 112.9692°W)
Time: 15:51:19
(UTC+00:00)

Transit 2A - Pass Details

Date: 21 May 2024
Orbit: 592 x 959 km, 66.7° (Epoch: 23 June)

Event Time Altitude Azimuth Distance (km) Brightness Sun altitude
Rises 13:59:13 0° 320° (NW) 3,320 9.0 20.7°
Reaches altitude 10° 14:01:35 10° 323° (NW) 2,441 8.4 21.0°
Maximum altitude 14:07:15 66° 46° (NE) 963 7.2 21.9°
Drops below altitude 10° 14:13:24 10° 129° (SE) 2,636 9.6 22.8°
Sets 14:16:02 0° 132° (SE) 3,604 10.1 23.2°
